Regional Weather Roundup
Issued by NWS

Home | Current Version | Previous Version | Text Only | Print | Product List | Glossary On
Versions: 1 2 3 4 5 6 7 8 9 10 11 12 13 14 15 16 17 18 19 20 21 22 23 24 25 26 27 28 29 30 31 32 33 34 35 36 37 38 39 40 41 42 43 44 45 46 47 48 49 50
379
ASUS43 KOAX 202110
RWRNE

WEATHER ROUNDUP FOR NEBRASKA
NATIONAL WEATHER SERVICE OMAHA NE
300 PM CST TUE FEB 20 2018

NOTES: SATELLITE DATA IS BEING USED TO AUGMENT CLOUD COVER ABOVE
       12000 FEET.
       "FAIR" INDICATES FEW OR NO CLOUDS BELOW 12,000 FEET WITH NO
       SIGNIFICANT WEATHER AND/OR OBSTRUCTIONS TO VISIBILITY.


NEZ001>004-019>022-054>056-202200-
NEBRASKA PANHANDLE

CITY           SKY/WX    TMP DP  RH WIND       PRES   REMARKS
SCOTTSBLUFF    FAIR      12  -1  56 NW10      30.07S WCI  -1
ALLIANCE       FAIR       6  -3  66 W7        30.06R WCI  -6
CHADRON        FAIR       5  -6  60 W13       30.13S WCI -12
GORDON         FAIR       6  -4  63 NW3       30.09R
KIMBALL        FAIR      10  -1  62 W8        29.99R WCI  -3
SIDNEY         FAIR      10  -2  58 W10       30.05R WCI  -4
$$

NEZ057>060-069>072-079>082-202200-
SOUTHWEST NEBRASKA

CITY           SKY/WX    TMP DP  RH WIND       PRES   REMARKS
NORTH PLATTE   FAIR      14   1  56 NW15      30.14R WCI  -1
IMPERIAL       FAIR      15   1  53 N16       30.11R WCI  -1
LEXINGTON      FAIR      17   5  59 NW12      30.18R WCI   4
MCCOOK         FAIR      17   4  56 NW17G23   30.16R WCI   1
OGALLALA       FAIR      12   0  58 NW13      30.13R WCI  -3
$$

NEZ005>010-023>029-035>040-094-202200-
NORTH CENTRAL NEBRASKA

CITY           SKY/WX    TMP DP  RH WIND       PRES   REMARKS
VALENTINE      FAIR       9  -3  58 NW10      30.17R WCI  -5
AINSWORTH      FAIR      10   1  69 NW13      30.15S WCI  -6
BROKEN BOW     FAIR      12   1  61 N16       30.15R WCI  -5
O`NEILL        FAIR      10   3  75 NW16      30.19R WCI  -8
ORD            FAIR      14   3  61 NW15      30.19R WCI  -1
THEDFORD       FAIR      11   1  65 NW12      30.14R WCI  -4
$$

NEZ041-046>049-061>064-073>077-083>087-202200-
SOUTH CENTRAL NEBRASKA

CITY           SKY/WX    TMP DP  RH WIND       PRES   REMARKS
GRAND ISLAND   FAIR      18   5  57 NW21G26   30.19R WCI   1
AURORA         FAIR      18   7  61 NW20      30.18S WCI   2
HASTINGS       FAIR      19   6  57 N21G30    30.17F WCI   3
HEBRON         FAIR      23  10  56 NW16G26   30.18R WCI  10
HOLDREGE       FAIR      19   6  59 N13G18    30.17R WCI   6
KEARNEY        FAIR      17   6  62 N15       30.20R WCI   2
YORK           FAIR      18   9  68 N16G22    30.19R WCI   3
$$

NEZ011>018-030>034-042>045-202200-
NORTHEAST NEBRASKA

CITY           SKY/WX    TMP DP  RH WIND       PRES   REMARKS
NORFOLK        FAIR      14   7  73 NW16      30.18R WCI  -2
ALBION         FAIR      15   6  67 N14G22    30.20R WCI   0
BLAIR          PTSUNNY   18  12  79 NW16      30.16R WCI   3
COLUMBUS       FAIR      16   9  74 NW16      30.21R WCI   1
FREMONT        PTSUNNY   19  12  75 NW21      30.20R WCI   3
TEKAMAH        PTSUNNY   18  11  74 NW24G31   30.20R WCI   0
WAYNE          FAIR      14   7  73 NW20G26   30.18S WCI  -4
$$

NEZ050>053-065>068-078-088>093-202200-
SOUTHEAST NEBRASKA

CITY           SKY/WX    TMP DP  RH WIND       PRES   REMARKS
LINCOLN        PTSUNNY   20  10  65 NW18      30.21R WCI   5
OMAHA EPPLEY   FLURRIES  19  11  70 NW20G25   30.19R WCI   3
BEATRICE       PTSUNNY   23  13  67 NW21G26   30.18R WCI   8
FALLS CITY     CLOUDY    21  13  71 NW15G26   30.17R WCI   8
NEBRASKA CITY  CLOUDY    21  16  81 N18       30.17R WCI   6
PLATTSMOUTH    CLOUDY    19  14  79 NW17      30.17R WCI   4
$$

NEZ044-045-051>053-067-202200-
OMAHA AREA

CITY           SKY/WX    TMP DP  RH WIND       PRES   REMARKS
OMAHA EPPLEY   FLURRIES  19  11  70 NW20G25   30.19R WCI   3
BLAIR          PTSUNNY   18  12  79 NW16      30.16R WCI   3
FREMONT        PTSUNNY   19  12  75 NW21      30.20R WCI   3
MILLARD        CLOUDY    20  12  70 NW14G21   30.20R WCI   7
OFFUTT AFB     CLOUDY    19  10  68 NW15      30.18R WCI   5
PLATTSMOUTH    CLOUDY    19  14  79 NW17      30.17R WCI   4
WAHOO          FAIR      18  11  72 MISG      30.18R
$$




USA.gov is the U.S. government's official web portal to all federal, state and local government web resources and services.